Dobrodošli na spletni strani vremenske postaje Senovo. Vse informacije so informativnega značaja, saj vremenska postaja ni del državne mreže meteoroloških postaj. AKTUALNIH OBVESTIL NI.


Sneg/Led Od: 23-02-2018 00:00 Do: 23:59 Opozorilo za: Sneg/Led Stopnja: Rumena info button

Pogled proti Armezu več informacij Pogled proti Armezu


Lisca več informacij Lisca


Radar strel več informacij blitzortung!


opozorilo za sneg/led več informacij rain snow radar


Obiščite še:

Template documentation
and downloads

And another site



Weather Underground, zgodovina - Tekstovno

Dnevni povzetek za Februar 7, 2018 Enote:  Metrično    Angleško   Obe
« Predhodni Dan
Naslednji Dan »
Dnevni Tedenski Mesečni Letni Po meri
  Višja: Nižja: Povprečje:
Temperatura: -17.8 °C -18.1 °C -17.4 °C
Točka rosišča: -17.8 °C -19 °C -18.2 °C
Vlažnost: Humidity % 87 % 90 %
Hitrost vetra: 0 km/h 0 km/h 3.1 km/h
Sunki vetra: 0 km/h - -
Veter:- - SSE
Zračni tlak: 0 hPa 34063.2 hPa -
Padavine: 289.56 mm    
Historical Graphs
 
 
Tabelarni podarki za Februar 7, 2018
Čas Temperatura Točka rosišča Zračni tlak Veter Hitrost vetra Sunki vetra Vlažnost Intenziteta padavin (urna)
-17.8 °C -17.8 °C 0 hPa Calm     Humidity % 0 mm
00:04 -18.1 °C -18.9 °C 34303.6 hPa ESE 6.9 km/h 11.1 km/h 89 % 25.4 mm
00:09 -18.1 °C -19 °C 34303.6 hPa ESE 8 km/h 12.2 km/h 89 % 20.32 mm
00:14 -18.1 °C -19 °C 34269.7 hPa ESE 8 km/h 12.7 km/h 89 % 20.32 mm
00:19 -18.1 °C -18.9 °C 34269.7 hPa ESE 8 km/h 14.5 km/h 89 % 20.32 mm
00:24 -18.1 °C -18.9 °C 34269.7 hPa ESE 7.7 km/h 14.5 km/h 89 % 20.32 mm
00:29 -18.1 °C -18.9 °C 34337.4 hPa ESE 7.6 km/h 10.3 km/h 89 % 12.7 mm
00:34 -18.1 °C -18.9 °C 34337.4 hPa ESE 8 km/h 15 km/h 89 % 12.7 mm
00:39 -18.1 °C -18.9 °C 34337.4 hPa ESE 8.2 km/h 15 km/h 89 % 20.32 mm
00:44 -18.1 °C -18.9 °C 34303.6 hPa SE 8.5 km/h 19.6 km/h 89 % 20.32 mm
00:49 -18.1 °C -18.9 °C 34303.6 hPa SE 9.8 km/h 19.6 km/h 89 % 12.7 mm
00:54 -18.1 °C -18.9 °C 34303.6 hPa SE 10.9 km/h 15.6 km/h 89 % 20.32 mm
00:59 -18.1 °C -18.8 °C 34269.7 hPa SE 10.6 km/h 20.9 km/h 90 % 20.32 mm
01:04 -18.1 °C -18.8 °C 34269.7 hPa SE 9.8 km/h 20.9 km/h 90 % 20.32 mm
01:09 -18.1 °C -18.8 °C 34269.7 hPa SE 9.8 km/h 18.7 km/h 90 % 20.32 mm
01:14 -18.1 °C -18.8 °C 34269.7 hPa SE 11.1 km/h 16.9 km/h 90 % 20.32 mm
01:19 -18.1 °C -18.8 °C 34269.7 hPa SE 10.3 km/h 16.9 km/h 90 % 20.32 mm
01:24 -18.1 °C -18.8 °C 34269.7 hPa SE 8.5 km/h 16.9 km/h 90 % 20.32 mm
01:29 -18.1 °C -18.8 °C 34303.6 hPa SE 6.8 km/h 11.1 km/h 90 % 20.32 mm
01:34 -18.1 °C -18.8 °C 34303.6 hPa ESE 6.3 km/h 11.1 km/h 90 % 20.32 mm
01:39 -18.1 °C -18.9 °C 34303.6 hPa SE 6.3 km/h 9.8 km/h 90 % 20.32 mm
01:44 -18.1 °C -18.9 °C 34269.7 hPa SE 5.6 km/h 11.1 km/h 90 % 20.32 mm
01:49 -18.1 °C -18.9 °C 34269.7 hPa SE 6.3 km/h 11.1 km/h 90 % 20.32 mm
01:54 -18.1 °C -18.9 °C 34269.7 hPa SE 6.9 km/h 15 km/h 90 % 20.32 mm
01:59 -18.1 °C -18.9 °C 34269.7 hPa SE 8.5 km/h 15 km/h 90 % 25.4 mm
02:04 -18.1 °C -18.9 °C 34269.7 hPa SE 9 km/h 16.3 km/h 90 % 25.4 mm
02:09 -18.1 °C -18.9 °C 34269.7 hPa SE 9 km/h 16.3 km/h 90 % 25.4 mm
02:14 -18.1 °C -18.9 °C 34235.8 hPa SE 10.1 km/h 17.9 km/h 90 % 25.4 mm
02:19 -18.1 °C -18.9 °C 34235.8 hPa SE 9.7 km/h 17.9 km/h 90 % 25.4 mm
02:24 -18.1 °C -18.9 °C 34235.8 hPa SE 7.7 km/h 16.3 km/h 90 % 25.4 mm
02:29 -18.1 °C -18.9 °C 34235.8 hPa SE 5.1 km/h 15.6 km/h 90 % 25.4 mm
02:34 -18.1 °C -18.9 °C 34235.8 hPa SE 2.6 km/h 7.6 km/h 90 % 25.4 mm
02:39 -18.1 °C -18.8 °C 34269.7 hPa SE 3.1 km/h 9.3 km/h 90 % 25.4 mm
02:44 -18.1 °C -18.8 °C 34269.7 hPa SE 3.7 km/h 9.3 km/h 90 % 33.02 mm
02:49 -18.1 °C -18.8 °C 34269.7 hPa SE 2.6 km/h 7.6 km/h 90 % 33.02 mm
02:54 -18.1 °C -18.8 °C 34235.8 hPa SE 2.3 km/h 9.3 km/h 91 % 33.02 mm
02:59 -18.1 °C -18.8 °C 34235.8 hPa SE 4.7 km/h 9.3 km/h 91 % 33.02 mm
03:04 -18.1 °C -18.8 °C 34235.8 hPa SE 5.5 km/h 8 km/h 91 % 33.02 mm
03:09 -18.1 °C -18.8 °C 34235.8 hPa SE 3.9 km/h 8 km/h 91 % 33.02 mm
03:14 -18.1 °C -18.8 °C 34235.8 hPa SE 2.9 km/h 8 km/h 91 % 33.02 mm
03:19 -18.1 °C -18.8 °C 34235.8 hPa SE 1.8 km/h 5.6 km/h 91 % 38.1 mm
03:24 -18.1 °C -18.8 °C 34198.6 hPa SE 1.8 km/h 6.4 km/h 91 % 38.1 mm
03:29 -18.1 °C -18.8 °C 34198.6 hPa SE 1 km/h 6.4 km/h 91 % 38.1 mm
03:34 -18.1 °C -18.8 °C 34198.6 hPa SE 0.8 km/h 5.1 km/h 91 % 45.72 mm
03:39 -18.1 °C -18.8 °C 34198.6 hPa SE 0.5 km/h 3.4 km/h 91 % 45.72 mm
03:44 -18.1 °C -18.8 °C 34198.6 hPa SE 0.3 km/h 3.4 km/h 91 % 45.72 mm
03:49 -18.1 °C -18.8 °C 34198.6 hPa SE 0.3 km/h 4.2 km/h 91 % 45.72 mm
03:54 -18.1 °C -18.8 °C 34164.7 hPa SE 0.3 km/h 4.2 km/h 91 % 45.72 mm
03:59 -18.1 °C -18.8 °C 34164.7 hPa Calm     91 % 45.72 mm
04:04 -18.1 °C -18.8 °C 34164.7 hPa Calm     91 % 45.72 mm
04:09 -18.1 °C -18.8 °C 34164.7 hPa Calm     91 % 45.72 mm
04:14 -18.1 °C -18.7 °C 34164.7 hPa SE 0.3 km/h 4.2 km/h 92 % 45.72 mm
04:19 -18.1 °C -18.7 °C 34164.7 hPa SE 0.3 km/h 4.2 km/h 92 % 45.72 mm
04:24 -18.1 °C -18.7 °C 34164.7 hPa Calm     92 % 45.72 mm
04:29 -18.1 °C -18.7 °C 34164.7 hPa Calm     92 % 38.1 mm
04:34 -18.1 °C -18.7 °C 34164.7 hPa SE 0.5 km/h 4.2 km/h 92 % 33.02 mm
04:39 -18.1 °C -18.7 °C 34164.7 hPa SE 1 km/h 4.2 km/h 92 % 33.02 mm
04:44 -18.1 °C -18.7 °C 34164.7 hPa SE 1.6 km/h 8 km/h 92 % 38.1 mm
04:49 -18.1 °C -18.7 °C 34164.7 hPa SE 3.9 km/h 10.3 km/h 92 % 38.1 mm
04:54 -18.1 °C -18.7 °C 34130.9 hPa SE 5 km/h 10.3 km/h 92 % 38.1 mm
04:59 -18.1 °C -18.7 °C 34130.9 hPa SE 4.3 km/h 8.9 km/h 92 % 33.02 mm
05:04 -18.1 °C -18.7 °C 34130.9 hPa SE 3.4 km/h 8.9 km/h 92 % 33.02 mm
05:09 -18 °C -18.7 °C 34164.7 hPa SE 4.3 km/h 11.1 km/h 92 % 33.02 mm
05:14 -18 °C -18.7 °C 34164.7 hPa SE 6 km/h 11.1 km/h 92 % 33.02 mm
05:19 -17.9 °C -18.5 °C 34164.7 hPa SE 4.2 km/h 8.9 km/h 93 % 33.02 mm
05:24 -17.9 °C -18.5 °C 34198.6 hPa SE 2.9 km/h 7.6 km/h 93 % 33.02 mm
05:29 -17.9 °C -18.5 °C 34198.6 hPa SE 2.9 km/h 7.6 km/h 93 % 33.02 mm
05:34 -17.9 °C -18.5 °C 34198.6 hPa SE 2.1 km/h 8.9 km/h 93 % 38.1 mm
05:39 -17.9 °C -18.4 °C 34164.7 hPa SE 2.6 km/h 8.9 km/h 93 % 33.02 mm
05:44 -17.9 °C -18.4 °C 34164.7 hPa SE 2.6 km/h 6.9 km/h 93 % 25.4 mm
05:49 -17.9 °C -18.4 °C 34164.7 hPa SE 0.8 km/h 5.1 km/h 93 % 25.4 mm
05:54 -17.9 °C -18.4 °C 34164.7 hPa SE 0.5 km/h 5.1 km/h 93 % 33.02 mm
05:59 -17.9 °C -18.4 °C 34164.7 hPa SE 1.8 km/h 6.9 km/h 93 % 25.4 mm
06:04 -17.9 °C -18.4 °C 34164.7 hPa SE 2.3 km/h 6.9 km/h 93 % 25.4 mm
06:09 -17.9 °C -18.4 °C 34130.9 hPa SE 1.6 km/h 5.1 km/h 93 % 25.4 mm
06:14 -17.8 °C -18.4 °C 34130.9 hPa SE 3.4 km/h 9.3 km/h 93 % 25.4 mm
06:19 -17.8 °C -18.4 °C 34130.9 hPa SE 6.3 km/h 12.7 km/h 93 % 25.4 mm
06:24 -17.8 °C -18.3 °C 34130.9 hPa SE 7.7 km/h 12.7 km/h 93 % 25.4 mm
06:29 -17.8 °C -18.3 °C 34130.9 hPa SE 8 km/h 12.2 km/h 93 % 25.4 mm
06:34 -17.7 °C -18.3 °C 34130.9 hPa SE 7.6 km/h 12.2 km/h 93 % 20.32 mm
06:39 -17.7 °C -18.3 °C 34130.9 hPa SE 7.6 km/h 14.5 km/h 93 % 25.4 mm
06:44 -17.7 °C -18.2 °C 34130.9 hPa SE 6 km/h 14.5 km/h 93 % 25.4 mm
06:49 -17.7 °C -18.2 °C 34130.9 hPa SE 4.2 km/h 8.9 km/h 93 % 20.32 mm
06:54 -17.7 °C -18.2 °C 34130.9 hPa SE 3.9 km/h 6.9 km/h 93 % 12.7 mm
06:59 -17.7 °C -18.2 °C 34130.9 hPa SE 5 km/h 10.3 km/h 93 % 20.32 mm
07:04 -17.6 °C -18.1 °C 34130.9 hPa SE 6.3 km/h 10.3 km/h 94 % 20.32 mm
07:09 -17.6 °C -18.1 °C 34130.9 hPa SE 6.3 km/h 12.2 km/h 94 % 20.32 mm
07:14 -17.6 °C -18.1 °C 34130.9 hPa SE 5.1 km/h 12.2 km/h 94 % 12.7 mm
07:19 -17.6 °C -18.1 °C 34130.9 hPa SE 2.9 km/h 10.3 km/h 94 % 12.7 mm
07:24 -17.6 °C -18.1 °C 34130.9 hPa SE 1.3 km/h 10.3 km/h 94 % 12.7 mm
07:29 -17.6 °C -18.1 °C 34130.9 hPa SE 2.3 km/h 6.9 km/h 94 % 12.7 mm
07:34 -17.6 °C -18.2 °C 34130.9 hPa SE 2.1 km/h 6.9 km/h 93 % 12.7 mm
07:39 -17.6 °C -18.2 °C 34130.9 hPa SE 1.3 km/h 5.6 km/h 93 % 7.62 mm
07:44 -17.7 °C -18.2 °C 34130.9 hPa SE 3.9 km/h 7.6 km/h 93 % 7.62 mm
07:49 -17.7 °C -18.2 °C 34130.9 hPa SE 4.3 km/h 7.6 km/h 93 % 7.62 mm
07:54 -17.7 °C -18.2 °C 34130.9 hPa SE 2.6 km/h 6.9 km/h 93 % 7.62 mm
07:59 -17.7 °C -18.2 °C 34130.9 hPa SE 0.8 km/h 2.9 km/h 93 % 7.62 mm
08:04 -17.7 °C -18.2 °C 34130.9 hPa SE 0.3 km/h 6.4 km/h 93 % 7.62 mm
08:09 -17.6 °C -18.2 °C 34130.9 hPa SE 0.5 km/h 6.4 km/h 93 % 7.62 mm
08:14 -17.6 °C -18.2 °C 34130.9 hPa SE 0.5 km/h 5.6 km/h 93 % 7.62 mm
08:19 -17.6 °C -18.2 °C 34130.9 hPa SE 0.3 km/h 2.9 km/h 93 % 12.7 mm
08:24 -17.6 °C -18.2 °C 34130.9 hPa SE 1.6 km/h 6.4 km/h 93 % 7.62 mm
08:29 -17.6 °C -18 °C 34130.9 hPa SE 3.9 km/h 10.3 km/h 94 % 7.62 mm
08:34 -17.6 °C -18 °C 34130.9 hPa SE 6 km/h 10.3 km/h 94 % 7.62 mm
08:39 -17.4 °C -17.9 °C 34130.9 hPa SE 6.9 km/h 15.6 km/h 94 % 7.62 mm
08:44 -17.4 °C -17.9 °C 34130.9 hPa SE 8.9 km/h 15.6 km/h 94 % 7.62 mm
08:49 -17.4 °C -17.9 °C 34130.9 hPa SE 8.5 km/h 15 km/h 94 % 7.62 mm
08:54 -17.4 °C -17.9 °C 34164.7 hPa SE 8.2 km/h 16.3 km/h 94 % 12.7 mm
08:59 -17.3 °C -17.8 °C 34164.7 hPa SE 9.3 km/h 16.3 km/h 94 % 7.62 mm
09:04 -17.3 °C -17.8 °C 34164.7 hPa SE 8 km/h 12.7 km/h 94 % 7.62 mm
09:09 -17.3 °C -17.7 °C 34130.9 hPa SE 6 km/h 11.1 km/h 94 % 7.62 mm
09:14 -17.3 °C -17.7 °C 34130.9 hPa SE 4.2 km/h 8 km/h 94 % 7.62 mm
09:19 -17.3 °C -17.8 °C 34130.9 hPa SE 2.3 km/h 7.6 km/h 93 % 7.62 mm
09:24 -17.3 °C -17.8 °C 34164.7 hPa SE 3.7 km/h 9.3 km/h 93 % 7.62 mm
09:29 -17.3 °C -17.8 °C 34164.7 hPa SE 4.2 km/h 9.3 km/h 93 % 7.62 mm
09:34 -17.3 °C -17.8 °C 34164.7 hPa SE 2.9 km/h 8.9 km/h 93 % 7.62 mm
09:39 -17.3 °C -17.8 °C 34130.9 hPa SE 1.6 km/h 8 km/h 93 % 7.62 mm
09:44 -17.3 °C -17.8 °C 34130.9 hPa SE 1 km/h 6.9 km/h 93 % 7.62 mm
09:49 -17.3 °C -17.8 °C 34130.9 hPa SE 0.8 km/h 7.6 km/h 93 % 0 mm
09:54 -17.2 °C -17.9 °C 34130.9 hPa SE 2.9 km/h 9.3 km/h 92 % 0 mm
09:59 -17.2 °C -17.9 °C 34130.9 hPa SE 5.6 km/h 9.3 km/h 92 % 0 mm
10:04 -17.2 °C -17.8 °C 34130.9 hPa SE 6 km/h 16.3 km/h 92 % 0 mm
10:09 -17.2 °C -17.8 °C 34130.9 hPa SE 3.9 km/h 16.3 km/h 92 % 0 mm
10:14 -17.1 °C -17.7 °C 34130.9 hPa SE 1.8 km/h 6.9 km/h 92 % 0 mm
10:19 -17.1 °C -17.7 °C 34130.9 hPa SE 3.7 km/h 9.8 km/h 92 % 0 mm
10:24 -17.1 °C -17.7 °C 34164.7 hPa SE 3.9 km/h 9.8 km/h 92 % 0 mm
10:29 -17.1 °C -17.7 °C 34164.7 hPa SE 2.1 km/h 6.9 km/h 92 % 0 mm
10:34 -17.1 °C -17.7 °C 34164.7 hPa SE 2.6 km/h 9.8 km/h 92 % 0 mm
10:39 -17.1 °C -17.7 °C 34130.9 hPa SE 5.1 km/h 9.8 km/h 92 % 0 mm
10:45 -17.1 °C -17.7 °C 34130.9 hPa SE 5.1 km/h 9.8 km/h 92 % 0 mm
10:50 -17.1 °C -17.8 °C 34130.9 hPa SE 2.6 km/h 6.9 km/h 91 % 0 mm
10:55 -17 °C -17.7 °C 34130.9 hPa SE 0.8 km/h 6.4 km/h 91 % 0 mm
11:00 -17 °C -17.7 °C 34130.9 hPa SE 3.1 km/h 12.2 km/h 91 % 0 mm
11:05 -17 °C -17.7 °C 34130.9 hPa SE 4.3 km/h 12.2 km/h 91 % 0 mm
11:10 -17 °C -17.7 °C 34130.9 hPa SE 2.3 km/h 8 km/h 91 % 0 mm
11:15 -16.9 °C -17.7 °C 34130.9 hPa SE 2.3 km/h 8 km/h 91 % 0 mm
11:20 -16.9 °C -17.7 °C 34130.9 hPa SE 1.6 km/h 6.4 km/h 91 % 0 mm
11:25 -16.9 °C -17.7 °C 34130.9 hPa SE 1.3 km/h 9.3 km/h 90 % 0 mm
11:30 -16.9 °C -17.7 °C 34130.9 hPa SE 4.3 km/h 10.3 km/h 90 % 0 mm
11:35 -16.9 °C -17.7 °C 34130.9 hPa SE 6 km/h 10.3 km/h 90 % 0 mm
11:40 -16.9 °C -17.7 °C 34130.9 hPa SE 3.1 km/h 10.3 km/h 90 % 0 mm
11:45 -16.8 °C -17.7 °C 34130.9 hPa SE 1.6 km/h 7.6 km/h 90 % 0 mm
11:50 -16.8 °C -17.6 °C 34130.9 hPa SE 5 km/h 12.7 km/h 90 % 0 mm
11:55 -16.8 °C -17.7 °C 34097 hPa SE 8.9 km/h 12.7 km/h 90 % 0 mm
12:00 -16.9 °C -17.8 °C 34097 hPa SE 10.6 km/h 14 km/h 89 % 0 mm
12:05 -16.9 °C -17.8 °C 34097 hPa SE 9.3 km/h 14 km/h 89 % 0 mm
12:10 -16.9 °C -17.8 °C 34130.9 hPa SE 7.2 km/h 9.8 km/h 89 % 0 mm
12:15 -16.9 °C -17.8 °C 34130.9 hPa SE 7.2 km/h 10.3 km/h 89 % 0 mm
12:20 -16.9 °C -17.8 °C 34130.9 hPa SE 4.7 km/h 10.3 km/h 89 % 0 mm
12:25 -16.8 °C -17.7 °C 34130.9 hPa SE 1.6 km/h 6.4 km/h 89 % 0 mm
12:30 -16.8 °C -17.7 °C 34130.9 hPa SE 0.3 km/h 5.1 km/h 89 % 0 mm
12:35 -16.8 °C -17.7 °C 34130.9 hPa SE 1 km/h 5.1 km/h 89 % 0 mm
12:40 -16.8 °C -17.7 °C 34130.9 hPa SE 2.3 km/h 11.1 km/h 89 % 0 mm
12:45 -16.8 °C -17.7 °C 34130.9 hPa SE 5.5 km/h 15 km/h 89 % 0 mm
12:50 -16.8 °C -17.7 °C 34130.9 hPa SE 8.9 km/h 15 km/h 89 % 0 mm
12:55 -16.8 °C -17.7 °C 34130.9 hPa SE 8.2 km/h 14 km/h 89 % 0 mm
13:00 -16.8 °C -17.7 °C 34130.9 hPa SE 8.2 km/h 14.5 km/h 89 % 0 mm
13:05 -16.8 °C -17.8 °C 34130.9 hPa SE 8.9 km/h 16.9 km/h 88 % 0 mm
13:10 -16.8 °C -17.8 °C 34130.9 hPa SE 8 km/h 16.9 km/h 88 % 0 mm
13:15 -16.8 °C -17.8 °C 34130.9 hPa SE 7.6 km/h 12.7 km/h 88 % 0 mm
13:20 -16.8 °C -17.8 °C 34130.9 hPa SE 6.8 km/h 12.7 km/h 88 % 0 mm
13:25 -16.8 °C -17.8 °C 34097 hPa SE 6.9 km/h 12.7 km/h 88 % 0 mm
13:30 -16.8 °C -17.8 °C 34097 hPa SE 7.7 km/h 16.9 km/h 88 % 0 mm
13:35 -16.7 °C -17.7 °C 34097 hPa SE 5 km/h 16.9 km/h 88 % 0 mm
13:40 -16.7 °C -17.7 °C 34097 hPa ESE 1.6 km/h 8.9 km/h 88 % 0 mm
13:45 -16.7 °C -17.7 °C 34097 hPa ESE 3.9 km/h 9.8 km/h 87 % 0 mm
13:50 -16.7 °C -17.7 °C 34097 hPa ESE 7.6 km/h 12.2 km/h 87 % 0 mm
13:55 -16.7 °C -17.7 °C 34130.9 hPa ESE 6.4 km/h 12.2 km/h 87 % 0 mm
14:00 -16.7 °C -17.7 °C 34130.9 hPa ESE 4.3 km/h 9.3 km/h 87 % 0 mm
14:05 -16.7 °C -17.8 °C 34130.9 hPa ESE 5.5 km/h 9.8 km/h 87 % 0 mm
14:10 -16.7 °C -17.8 °C 34130.9 hPa ESE 5.6 km/h 9.8 km/h 87 % 0 mm
14:15 -16.7 °C -17.8 °C 34130.9 hPa ESE 3.9 km/h 8.9 km/h 87 % 0 mm
14:20 -16.7 °C -17.8 °C 34130.9 hPa East 3.7 km/h 11.1 km/h 87 % 0 mm
14:25 -16.7 °C -17.8 °C 34097 hPa East 3.7 km/h 11.1 km/h 87 % 0 mm
14:30 -16.8 °C -17.8 °C 34097 hPa SSW 4.7 km/h 11.1 km/h 87 % 0 mm
14:35 -16.8 °C -17.9 °C 34097 hPa SW 6.8 km/h 11.1 km/h 87 % 0 mm
14:40 -16.9 °C -17.9 °C 34130.9 hPa SW 6.9 km/h 9.3 km/h 87 % 0 mm
14:45 -16.9 °C -17.9 °C 34130.9 hPa SW 5.1 km/h 9.3 km/h 87 % 0 mm
14:50 -16.9 °C -17.9 °C 34130.9 hPa WSW 1.3 km/h 7.6 km/h 87 % 0 mm
14:55 -16.9 °C -17.9 °C 34097 hPa Calm     87 % 0 mm
15:00 -16.9 °C -17.9 °C 34097 hPa Calm     87 % 0 mm
15:05 -16.8 °C -17.9 °C 34097 hPa Calm     87 % 0 mm
15:10 -16.9 °C -17.9 °C 34097 hPa Calm     87 % 0 mm
15:15 -16.9 °C -17.9 °C 34097 hPa Calm   6.4 km/h 87 % 0 mm
15:20 -16.8 °C -17.9 °C 34097 hPa NW 0.3 km/h 6.4 km/h 87 % 0 mm
15:25 -16.8 °C -17.9 °C 34097 hPa Calm   2.3 km/h 87 % 0 mm
15:30 -16.9 °C -17.9 °C 34097 hPa WSW 0.3 km/h 5.1 km/h 87 % 0 mm
15:35 -16.9 °C -17.9 °C 34097 hPa West 2.1 km/h 6.4 km/h 87 % 0 mm
15:40 -16.9 °C -17.9 °C 34097 hPa West 2.9 km/h 6.4 km/h 87 % 0 mm
15:45 -16.9 °C -17.9 °C 34097 hPa West 1.3 km/h 4.2 km/h 87 % 0 mm
15:50 -16.9 °C -17.9 °C 34097 hPa NNW 1.3 km/h 6.4 km/h 87 % 0 mm
15:55 -16.9 °C -17.9 °C 34097 hPa West 3.1 km/h 6.9 km/h 87 % 0 mm
16:00 -16.9 °C -17.9 °C 34097 hPa SW 2.9 km/h 6.9 km/h 87 % 0 mm
16:05 -16.9 °C -18 °C 34097 hPa SSW 3.7 km/h 9.8 km/h 87 % 0 mm
16:10 -16.9 °C -18 °C 34097 hPa SSW 6.3 km/h 9.8 km/h 87 % 0 mm
16:15 -17 °C -18.1 °C 34097 hPa SSW 5.6 km/h 9.8 km/h 87 % 0 mm
16:20 -17 °C -18.1 °C 34097 hPa SSW 4.2 km/h 6.9 km/h 87 % 0 mm
16:25 -17 °C -18.1 °C 34097 hPa SSE 3.7 km/h 7.6 km/h 87 % 0 mm
16:31 -17.1 °C -18.1 °C 34097 hPa SE 3.7 km/h 7.6 km/h 87 % 0 mm
16:35 -17.1 °C -18.1 °C 34097 hPa SE 1.6 km/h 6.9 km/h 87 % 0 mm
16:40 -17.1 °C -18.2 °C 34097 hPa West 2.1 km/h 6.9 km/h 87 % 0 mm
16:46 -17.1 °C -18.2 °C 34097 hPa WNW 3.9 km/h 7.6 km/h 87 % 0 mm
16:51 -17.2 °C -18.2 °C 34097 hPa WNW 1.8 km/h 7.6 km/h 87 % 0 mm
16:56 -17.2 °C -18.2 °C 34063.2 hPa Calm     87 % 0 mm
17:01 -17.2 °C -18.2 °C 34063.2 hPa Calm     87 % 0 mm
17:06 -17.2 °C -18.3 °C 34063.2 hPa Calm     87 % 0 mm
17:11 -17.2 °C -18.3 °C 34097 hPa Calm   2.9 km/h 87 % 0 mm
17:16 -17.2 °C -18.2 °C 34097 hPa Calm   2.9 km/h 88 % 0 mm
17:21 -17.2 °C -18.2 °C 34097 hPa South 1.3 km/h 6.9 km/h 88 % 0 mm
17:26 -17.2 °C -18.2 °C 34097 hPa South 1.3 km/h 6.9 km/h 88 % 0 mm
17:31 -17.3 °C -18.3 °C 34097 hPa Calm     88 % 0 mm
17:36 -17.3 °C -18.3 °C 34097 hPa WSW 1 km/h 5.1 km/h 88 % 0 mm
17:41 -17.3 °C -18.3 °C 34063.2 hPa WSW 3.4 km/h 6.4 km/h 88 % 0 mm
17:46 -17.3 °C -18.3 °C 34063.2 hPa WSW 3.9 km/h 6.4 km/h 88 % 0 mm
17:51 -17.3 °C -18.3 °C 34063.2 hPa WSW 1.8 km/h 6.4 km/h 88 % 0 mm
17:56 -17.3 °C -18.2 °C 34097 hPa Calm   2.3 km/h 89 % 0 mm
18:01 -17.3 °C -18.2 °C 34097 hPa Calm   2.3 km/h 89 % 0 mm
18:06 -17.3 °C -18.2 °C 34097 hPa Calm     89 % 0 mm
18:11 -17.3 °C -18.2 °C 34130.9 hPa Calm     89 % 0 mm
18:16 -17.3 °C -18.2 °C 34130.9 hPa Calm     89 % 0 mm
18:21 -17.4 °C -18.3 °C 34130.9 hPa Calm     89 % 0 mm
18:26 -17.4 °C -18.3 °C 34130.9 hPa Calm     89 % 0 mm
18:31 -17.4 °C -18.3 °C 34130.9 hPa Calm     89 % 0 mm
18:36 -17.4 °C -18.3 °C 34130.9 hPa Calm     89 % 0 mm
18:41 -17.4 °C -18.3 °C 34130.9 hPa Calm     89 % 0 mm
18:46 -17.4 °C -18.3 °C 34130.9 hPa Calm     89 % 0 mm
18:51 -17.4 °C -18.3 °C 34130.9 hPa Calm     89 % 0 mm
18:56 -17.4 °C -18.2 °C 34130.9 hPa Calm     90 % 0 mm
19:01 -17.4 °C -18.2 °C 34130.9 hPa Calm     90 % 0 mm
19:06 -17.4 °C -18.2 °C 34130.9 hPa Calm     90 % 0 mm
19:11 -17.4 °C -18.2 °C 34130.9 hPa Calm     90 % 0 mm
19:16 -17.4 °C -18.2 °C 34130.9 hPa Calm     90 % 0 mm
19:21 -17.4 °C -18.2 °C 34130.9 hPa Calm     90 % 0 mm
19:26 -17.4 °C -18.2 °C 34130.9 hPa Calm     90 % 0 mm
19:31 -17.4 °C -18.2 °C 34130.9 hPa Calm     90 % 0 mm
19:36 -17.4 °C -18.2 °C 34130.9 hPa Calm     90 % 0 mm
19:41 -17.4 °C -18.2 °C 34130.9 hPa Calm     90 % 0 mm
19:46 -17.4 °C -18.2 °C 34130.9 hPa Calm     90 % 0 mm
19:51 -17.4 °C -18.2 °C 34130.9 hPa Calm     90 % 0 mm
19:56 -17.4 °C -18.2 °C 34130.9 hPa Calm     91 % 0 mm
20:01 -17.4 °C -18.2 °C 34130.9 hPa Calm     91 % 0 mm
20:06 -17.4 °C -18.2 °C 34130.9 hPa Calm     91 % 0 mm
20:11 -17.4 °C -18.2 °C 34130.9 hPa Calm     91 % 0 mm
20:16 -17.4 °C -18.2 °C 34130.9 hPa Calm     91 % 0 mm
20:21 -17.4 °C -18.2 °C 34130.9 hPa Calm     91 % 0 mm
20:26 -17.4 °C -18.2 °C 34130.9 hPa Calm     91 % 0 mm
20:31 -17.4 °C -18.2 °C 34130.9 hPa Calm     91 % 0 mm
20:36 -17.4 °C -18.2 °C 34130.9 hPa Calm     91 % 0 mm
20:41 -17.4 °C -18.1 °C 34130.9 hPa Calm     92 % 0 mm
20:46 -17.4 °C -18.1 °C 34130.9 hPa Calm     92 % 0 mm
20:52 -17.4 °C -18.1 °C 34130.9 hPa Calm     92 % 0 mm
20:57 -17.4 °C -18.1 °C 34130.9 hPa Calm     92 % 7.62 mm
21:02 -17.4 °C -18.1 °C 34130.9 hPa Calm     92 % 12.7 mm
21:07 -17.4 °C -18.1 °C 34130.9 hPa Calm     92 % 20.32 mm
21:12 -17.4 °C -18.1 °C 34130.9 hPa Calm     92 % 20.32 mm
21:17 -17.4 °C -18.1 °C 34130.9 hPa Calm     92 % 20.32 mm
21:22 -17.4 °C -18.1 °C 34130.9 hPa Calm     92 % 20.32 mm
21:27 -17.4 °C -18.1 °C 34130.9 hPa Calm     92 % 25.4 mm
21:32 -17.4 °C -18.1 °C 34130.9 hPa Calm     92 % 25.4 mm
21:37 -17.4 °C -18 °C 34130.9 hPa Calm     93 % 25.4 mm
21:42 -17.4 °C -18 °C 34130.9 hPa Calm     93 % 25.4 mm
21:47 -17.4 °C -18 °C 34130.9 hPa Calm     93 % 25.4 mm
21:52 -17.4 °C -18 °C 34130.9 hPa Calm     93 % 25.4 mm
21:57 -17.4 °C -18 °C 34130.9 hPa Calm     93 % 20.32 mm
22:02 -17.4 °C -18 °C 34130.9 hPa Calm     93 % 12.7 mm
22:07 -17.4 °C -18 °C 34130.9 hPa Calm     93 % 12.7 mm
22:12 -17.4 °C -18 °C 34130.9 hPa Calm     93 % 12.7 mm
22:17 -17.4 °C -18 °C 34130.9 hPa Calm     93 % 12.7 mm
22:22 -17.4 °C -18 °C 34130.9 hPa Calm     93 % 12.7 mm
22:27 -17.4 °C -18 °C 34130.9 hPa Calm     93 % 12.7 mm
22:32 -17.4 °C -18 °C 34130.9 hPa Calm     93 % 12.7 mm
22:37 -17.4 °C -18 °C 34130.9 hPa Calm     93 % 12.7 mm
22:42 -17.4 °C -18 °C 34130.9 hPa Calm     93 % 12.7 mm
22:47 -17.4 °C -17.9 °C 34130.9 hPa Calm     94 % 20.32 mm
22:52 -17.4 °C -17.9 °C 34130.9 hPa Calm     94 % 20.32 mm
22:57 -17.4 °C -17.9 °C 34130.9 hPa Calm     94 % 20.32 mm
23:02 -17.4 °C -17.9 °C 34130.9 hPa Calm     94 % 20.32 mm
23:07 -17.4 °C -17.9 °C 34130.9 hPa Calm     94 % 20.32 mm
23:12 -17.4 °C -17.9 °C 34130.9 hPa Calm     94 % 20.32 mm
23:17 -17.4 °C -17.9 °C 34130.9 hPa Calm     94 % 20.32 mm
23:22 -17.4 °C -17.9 °C 34130.9 hPa Calm     94 % 20.32 mm
23:27 -17.4 °C -17.9 °C 34164.7 hPa Calm     94 % 25.4 mm
23:32 -17.4 °C -17.9 °C 34164.7 hPa Calm     94 % 20.32 mm
23:38 -17.4 °C -17.9 °C 34164.7 hPa Calm     94 % 25.4 mm
23:43 -17.4 °C -17.9 °C 34164.7 hPa Calm     94 % 25.4 mm
23:48 -17.4 °C -17.9 °C 34164.7 hPa Calm     94 % 25.4 mm
23:53 -17.4 °C -17.9 °C 34164.7 hPa Calm     94 % 25.4 mm
23:58 -17.4 °C -17.9 °C 34164.7 hPa Calm     94 % 25.4 mm
Vremenska postaja Senovo
Podatki zbrani iz Weather Underground - 3 mb

Script developed by  Jim McMurry - jmcmurry@mwt.net Adapted for the template by  Wim van der Kuil - Leuven-Template.eu

Vremenski podatki so objavljeni na:

European Weather Network

WeatherCloud

Weather Underground

AWEKAS

HAMweather, WeatherForYou, PWS Weather

MapView

Geostik

Slovenia weather network

Oprema, ki se uporablja:

Vremenski program
Cumulus

Vremenski server
Asus

Cumulus

Asus